Doha, Qatar

12:58 AM AST on September 27, 2016 (GMT +0300)
Doha International

Weather History for OTBD - September, 2013

Change the Weather History Date:

Thursday, September 19, 2013

  Actual Average Record
Temperature  
Mean Temperature 95 °F -  
Max Temperature 104 °F 99 °F 107 °F (2002)
Min Temperature 86 °F 83 °F 78 °F (2000)
Cooling Degree Days 30    
Growing Degree Days 45 (Base 50)    
Moisture  
Dew Point 74 °F    
Average Humidity 55    
Maximum Humidity 75    
Minimum Humidity 19    
Precipitation  
Precipitation 0.00 in - - ()
Sea Level Pressure  
Sea Level Pressure 29.66 in    
Wind  
Wind Speed 5 mph ()    
Max Wind Speed 12 mph    
Max Gust Speed -    
Visibility 6.0 miles    
Events      
Averages and records for this station are not official NWS values.
T = Trace of Precipitation, MM = Missing Value Source: Averaged Metar Reports

Daily Weather History Graph

Daily Weather History Graph

Search for Another Location

Airport or City:

Trip Planner

Search our weather history database for the weather conditions in past years. The results will help you decide how hot, cold, wet, or windy it might be!

Date:

Astronomy

Sep. 19, 2013 Rise Set
Actual Time 5:21 AM AST 5:33 PM AST
Civil Twilight 4:58 AM AST 5:56 PM AST
Nautical Twilight 4:31 AM AST 6:23 PM AST
Astronomical Twilight 4:04 AM AST 6:49 PM AST
Moon 5:23 PM AST (9/19) 5:01 AM AST (9/19)
Length of Visible Light 12h 58m
Length of Day
12h 12m
Full, 100% of the Moon is Illuminated
Sep 19
Full
Sep 19
Full
Sep 27
Last Quarter
Oct 5
New
Oct 12
First Quarter

Hourly Weather History & Observations

Time (AST) Temp. Heat Index Dew Point Humidity Pressure Visibility Wind Dir Wind Speed Gust Speed Precip Events Conditions
12:00 AM 91.4 °F 102.5 °F 75.2 °F 59% 29.62 in - NW 4.6 mph - N/A   Clear
1:00 AM 89.6 °F 104.7 °F 78.8 °F 70% 29.62 in - Variable 2.3 mph - N/A   Clear
2:00 AM 91.4 °F 102.5 °F 75.2 °F 59% 29.62 in - NW 3.5 mph - N/A   Clear
3:00 AM 90 °F - 75 °F 53% 29.64 in 7 mi NW 4.6 mph - -  
3:00 AM 91.4 °F 102.5 °F 75.2 °F 59% 29.62 in - NW 4.6 mph - N/A   Clear
3:30 AM 89.6 °F 99.8 °F 75.2 °F 62% 29.62 in - North 3.5 mph - N/A   Clear
4:00 AM 89.6 °F 102.2 °F 77.0 °F 66% 29.65 in - Variable 1.2 mph - N/A   Clear
4:30 AM 87.8 °F 97.6 °F 75.2 °F 66% 29.65 in - Calm Calm - N/A   Clear
5:00 AM 87.8 °F 97.6 °F 75.2 °F 66% 29.65 in - Calm Calm - N/A   Clear
5:30 AM 86.0 °F 96.9 °F 77.0 °F 74% 29.65 in - Calm Calm - N/A   Clear
6:00 AM 86.0 °F 96.9 °F 77.0 °F 74% 29.65 in - Variable 2.3 mph - N/A   Clear
6:30 AM 89.6 °F 102.2 °F 77.0 °F 66% 29.65 in - Variable 1.2 mph - N/A   Clear
7:00 AM 91.4 °F 105.1 °F 77.0 °F 63% 29.68 in - Variable 2.3 mph - N/A   Clear
7:30 AM 93.2 °F 100.5 °F 71.6 °F 49% 29.68 in - North 3.5 mph - N/A   Clear
8:00 AM 96.8 °F 103.1 °F 69.8 °F 41% 29.68 in - Variable 2.3 mph - N/A   Clear
8:30 AM 98.6 °F 102.8 °F 66.2 °F 35% 29.68 in - NNW 4.6 mph - N/A   Clear
9:00 AM 100 °F - 61 °F 19% 29.71 in 7 mi NNW 6.9 mph - -  
9:00 AM 100.4 °F 101.3 °F 60.8 °F 27% 29.68 in - NNW 6.9 mph - N/A   Clear
9:30 AM 100.4 °F 103.6 °F 64.4 °F 31% 29.68 in - North 8.1 mph - N/A   Clear
10:00 AM 100.4 °F 102.4 °F 62.6 °F 29% 29.68 in - North 9.2 mph - N/A   Clear
10:30 AM 100.4 °F 104.9 °F 66.2 °F 33% 29.68 in - North 8.1 mph - N/A   Clear
11:00 AM 100.4 °F 102.4 °F 62.6 °F 29% 29.68 in - North 9.2 mph - N/A   Clear
11:30 AM 102.2 °F 102.4 °F 59.0 °F 24% 29.68 in - NNE 11.5 mph - N/A   Clear
12:00 PM 102.2 °F 104.2 °F 62.6 °F 27% 29.65 in - NNE 10.4 mph - N/A   Clear
12:30 PM 100.4 °F 106.3 °F 68.0 °F 35% 29.65 in - NE 9.2 mph - N/A   Clear
1:00 PM 102.2 °F 105.5 °F 64.4 °F 29% 29.65 in - NNE 10.4 mph - N/A   Clear
1:30 PM 104.0 °F 106.6 °F 62.6 °F 26% 29.65 in - NNE 11.5 mph - N/A   Clear
2:00 PM 98.6 °F 114.4 °F 77.0 °F 50% 29.65 in - NE 11.5 mph - N/A   Clear
2:30 PM 98.6 °F 111.7 °F 75.2 °F 47% 29.65 in - NE 10.4 mph - N/A   Clear
3:00 PM 97 °F - 78 °F 46% 29.65 in 6 mi NE 11.5 mph - -  
3:00 PM 96.8 °F 114.8 °F 78.8 °F 56% 29.65 in - NE 11.5 mph - N/A   Clear
3:30 PM 96.8 °F 118.6 °F 80.6 °F 60% 29.62 in - NNE 10.4 mph - N/A   Clear
4:00 PM 95.0 °F 112.2 °F 78.8 °F 59% 29.65 in - NNE 11.5 mph - N/A   Clear
5:00 PM 93.2 °F 110.2 °F 78.8 °F 63% 29.65 in - NE 8.1 mph - N/A   Clear
5:30 PM 93.2 °F 113.6 °F 80.6 °F 67% 29.65 in 5.6 mi NNE 5.8 mph - N/A   Unknown
6:00 PM 91.4 °F 111.0 °F 80.6 °F 71% 29.65 in 5.6 mi NNE 5.8 mph - N/A   Unknown
6:30 PM 91.4 °F 107.2 °F 78.8 °F 66% 29.65 in 5.6 mi NNE 5.8 mph - N/A   Unknown
7:00 PM 91.4 °F 107.2 °F 78.8 °F 66% 29.65 in 5.6 mi NNE 4.6 mph - N/A   Unknown
7:30 PM 91.4 °F 107.2 °F 78.8 °F 66% 29.68 in 5.6 mi NNE 4.6 mph - N/A   Unknown
8:00 PM 91.4 °F 111.0 °F 80.6 °F 71% 29.68 in 5.6 mi North 4.6 mph - N/A   Unknown
8:30 PM 91.4 °F 111.0 °F 80.6 °F 71% 29.68 in - NNE 4.6 mph - N/A   Clear
9:00 PM 90 °F - 81 °F 70% 29.70 in 6 mi NNE 3.5 mph - -  
9:00 PM 89.6 °F 108.2 °F 80.6 °F 75% 29.68 in - NNE 3.5 mph - N/A   Clear
9:30 PM 89.6 °F 108.2 °F 80.6 °F 75% 29.68 in - East 3.5 mph - N/A   Clear
10:00 PM 89.6 °F 108.2 °F 80.6 °F 75% 29.68 in - NE 3.5 mph - N/A   Clear
10:30 PM 89.6 °F 108.2 °F 80.6 °F 75% 29.65 in - Variable 2.3 mph - N/A   Clear
11:00 PM 89.6 °F 108.2 °F 80.6 °F 75% 29.65 in - NNE 3.5 mph - N/A   Clear
11:30 PM 89.6 °F 108.2 °F 80.6 °F 75% 29.65 in - NE 3.5 mph - N/A   Clear